Flag for Germany Weather past 2 weeks in Garmisch-Partenkirchen, Bavaria, Germany

Now
27 °F

Chilly.


Feels Like: 27 °F
Forecast: 29 / 47 °F
Wind: 2 mph from North

Location: Innsbruck-Flughafen

Current Time: Dec 23, 2014 at 4:05:46 AM

Latest Report: Dec 23, 2014 at 3:20 AM


Visibility: N/A

Pressure: 30.30 "Hg

Humidity: 93%

Dew point: 25 °F

Location of Garmisch-PartenkirchenLocation

Historic Weather in Garmisch-Partenkirchen — Graph

°F

Garmisch-Partenkirchen temperature yesterday

Maximum temperature yesterday: 41 °F (at 1:50 PM)
Minimum temperature yesterday: 25 °F (at 5:20 AM)
Average temperature yesterday: 31 °F

Past Weeks' High & Low Weather Summary

 TemperatureHumidityPressure
High52 °F (Dec 13, 3:20 PM)100% (Dec 9, 2:50 AM)30.51 "Hg (Dec 9, 2:50 AM)
Low25 °F (Dec 22, 5:20 AM)37% (Dec 20, 9:50 PM)29.83 "Hg (Dec 17, 2:20 PM)
Average37 °F87%30.12 "Hg
* Reported Dec 8 2:20 AM — Dec 23 2:50 AM, Garmisch-Partenkirchen, Weather by CustomWeather, © 2014

Note: Actual official high and low records may vary slightly from our data, if they occured in-between our weather recording intervals... More about our weather records

Advertising

Garmisch-Partenkirchen weather history for previous 24 hours

 ConditionsComfort  
Time TempWeatherWind HumidityBarometerVisibility
2:50 AM
Dec 23
27 °FChilly.3 mph86%30.33 "HgN/A
2:20 AM27 °FChilly.1 mph93%30.33 "HgN/A
1:50 AM27 °FChilly.3 mph93%30.33 "HgN/A
1:20 AM27 °FChilly.2 mph93%30.30 "HgN/A
12:50 AM27 °FClear.2 mph93%30.30 "Hg10 mi
12:20 AM28 °FChilly.3 mph93%30.30 "HgN/A
11:50 PM
Dec 22
28 °FChilly.3 mph93%30.33 "HgN/A
11:20 PM28 °FClear.2 mph86%30.33 "Hg10 mi
10:50 PM28 °FClear.2 mph86%30.33 "Hg10 mi
10:20 PM28 °FPassing clouds.5 mph86%30.33 "HgN/A
9:50 PM28 °FPassing clouds.5 mph93%30.33 "HgN/A
9:20 PM30 °FPassing clouds.7 mph86%30.33 "HgN/A
8:50 PM32 °FClear.7 mph87%30.30 "Hg10 mi
8:20 PM30 °FPassing clouds.5 mph86%30.33 "HgN/A
7:50 PM32 °FPassing clouds.6 mph87%30.33 "HgN/A
7:20 PM32 °FPassing clouds.6 mph87%30.33 "HgN/A
6:50 PM32 °FPassing clouds.5 mph87%30.30 "HgN/A
6:20 PM32 °FPassing clouds.3 mph87%30.30 "HgN/A
5:50 PM34 °FPassing clouds.2 mph81%30.33 "HgN/A
5:20 PM34 °FPartly cloudy.3 mph81%30.33 "HgN/A
4:50 PM36 °FPartly cloudy.3 mph75%30.30 "HgN/A
4:20 PM36 °FBroken clouds.1 mph75%30.30 "HgN/A
3:50 PM37 °FPartly sunny.2 mph70%30.30 "HgN/A
3:20 PM37 °FSunny.1 mph70%30.30 "Hg10 mi
2:50 PM39 °FSunny.2 mph65%30.30 "Hg10 mi
2:20 PM41 °FSunny.2 mph57%30.30 "Hg10 mi
1:50 PM41 °FSunny.1 mph61%30.30 "Hg10 mi
1:20 PM39 °FSunny.2 mph65%30.30 "Hg10 mi
12:50 PM39 °FSunny.2 mph61%30.30 "Hg10 mi
12:20 PM37 °FSunny.2 mph65%30.33 "Hg10 mi
11:50 AM36 °FSunny.1 mph75%30.36 "Hg10 mi
11:20 AM34 °FSunny.1 mph75%30.36 "Hg10 mi
10:50 AM34 °FSunny.1 mph81%30.36 "Hg10 mi
10:20 AM30 °FSunny.3 mph93%30.36 "Hg10 mi
9:50 AM28 °FSunny.1 mph93%30.36 "Hg10 mi
9:20 AM27 °FSunny.1 mph100%30.39 "Hg10 mi
8:50 AM25 °FSunny.1 mph100%30.36 "Hg10 mi
8:20 AM25 °FSunny.2 mph93%30.36 "Hg10 mi
7:50 AM25 °FClear.2 mph100%30.36 "Hg10 mi
7:20 AM27 °FClear.1 mph93%30.36 "Hg10 mi
6:50 AM27 °FClear.2 mph93%30.36 "Hg10 mi
6:20 AM27 °FClear.2 mph93%30.36 "Hg10 mi
5:50 AM27 °FClear.2 mph93%30.36 "Hg10 mi
5:20 AM25 °FClear.1 mph100%30.36 "Hg10 mi
4:50 AM27 °FClear.1 mph93%30.36 "Hg10 mi
4:20 AM27 °FClear.2 mph93%30.36 "Hg10 mi
Weather by CustomWeather, © 2014

See weather overviewHow to use our weather pages